Location: ?????
(32.7281°N, 34.9563°E)
Time: 03:54:31
(UTC+00:00)

CZ-4B R/B - Pass Details

Date: 06 March 2021
Orbit: 388 x 454 km, 97.6° (Epoch: 18 April)

Event Time Altitude Azimuth Distance (km) Brightness Sun altitude
Rises 16:27:46 0° 352° (N) 2,299 5.1 -10.6°
Reaches altitude 10° 16:30:08 10° 332° (NNW) 1,447 4.4 -11.1°
Maximum altitude 16:32:18 18° 288° (WNW) 1,074 4.4 -11.5°
Drops below altitude 10° 16:34:29 10° 243° (WSW) 1,461 5.0 -12.0°
Sets 16:36:53 0° 223° (SW) 2,331 5.7 -12.5°
